This is the latest recevied weather packets stored in our database for station/object N4RCT. If no packets are shown the sender has not sent any weather packets the latest 10 day(s).
| Time | Temp. | Humidity | Pressure | Rain* | Wind** | Luminosity | Snow |
|---|---|---|---|---|---|---|---|
| 1777921700 | 25° C | 46% | 1014.2 hPa | 0 mm | - | 741 W/m² | - |
| 1777921396 | 25° C | 46% | 1014.5 hPa | 0 mm | - | 726 W/m² | - |
| 1777921093 | 25° C | 44% | 1014.3 hPa | 0 mm | - | 712 W/m² | - |
| 1777920790 | 25° C | 47% | 1014.6 hPa | 0 mm | - | 730 W/m² | - |
| 1777920486 | 25.56° C | 48% | 1014.8 hPa | 0 mm | - | 757 W/m² | - |
| 1777920182 | 25.56° C | 48% | 1014.7 hPa | 0 mm | - | 741 W/m² | - |
| 1777919878 | 25° C | 50% | 1014.6 hPa | 0 mm | - | 746 W/m² | - |
| 1777919575 | 23.89° C | 48% | 1014.8 hPa | 0 mm | - | 767 W/m² | - |
| 1777919273 | 25° C | 46% | 1014.8 hPa | 0 mm | - | 445 W/m² | - |
| 1777918970 | 25.56° C | 45% | 1014.6 hPa | 0 mm | - | 712 W/m² | - |
| 1777918668 | 25.56° C | 46% | 1014.9 hPa | 0 mm | - | 749 W/m² | - |
| 1777918365 | 25.56° C | 44% | 1015.1 hPa | 0 mm | - | 737 W/m² | - |
| 1777918064 | 25.56° C | 46% | 1014.8 hPa | 0 mm | - | 757 W/m² | - |
| 1777917762 | 25° C | 47% | 1015 hPa | 0 mm | - | 744 W/m² | - |
| 1777917459 | 24.44° C | 46% | 1014.8 hPa | 0 mm | - | 786 W/m² | - |
| 1777917156 | 23.89° C | 47% | 1015.3 hPa | 0 mm | - | 769 W/m² | - |
| 1777916854 | 23.89° C | 48% | 1015.3 hPa | 0 mm | - | 652 W/m² | - |
| 1777916552 | 23.89° C | 49% | 1015.2 hPa | 0 mm | - | 787 W/m² | - |
| 1777916248 | 24.44° C | 48% | 1015.3 hPa | 0 mm | - | 559 W/m² | - |
| 1777915945 | 23.89° C | 46% | 1015.4 hPa | 0 mm | - | 772 W/m² | - |
| 1777915642 | 23.33° C | 49% | 1015.5 hPa | 0 mm | - | 773 W/m² | - |
| 1777915338 | 23.89° C | 46% | 1015.7 hPa | 0 mm | - | 700 W/m² | - |
| 1777915035 | 24.44° C | 48% | 1015.5 hPa | 0 mm | - | 706 W/m² | - |
| 1777914732 | 23.89° C | 48% | 1015.9 hPa | 0 mm | - | 751 W/m² | - |
| 1777914428 | 23.33° C | 50% | 1015.7 hPa | 0 mm | - | 734 W/m² | - |
* Rain latest hour (hover to see other rain measurements)
** Current wind speed in m/s (hover to see current wind gust speed)